Back to catalog

STARLINK-5762

AliveCommunicationsVLEO
NORAD 55590·PAYLOAD·🇺🇸 United States

Launched Feb 12, 2023 from Cape Canaveral Space Force Station

Loading…

Next Passes (next 24 hours)

TLE

FreshSource: CelesTrak SupGP

Epoch: Sep 14, 2026, 21:19 UTC

1 55590C 23020X   26257.88868056  .00015399  00000+0  55775-3 0  2577
2 55590  43.0046  16.6406 0001710 285.4512 272.9249 15.27571042    12

Track STARLINK-5762 in real time with AllMySat

Download on the App Store